GW2042 Weather Reports


Display with metric or nautical units.
time (UTC)temp
F
wind
direction
speed
MPH
gust
MPH
rain 1hr
in
rain 24hr
in
rain mn
in
humidity
%
barometer
mb
20221203224535 53 21 1.0 6.0 0.00 0.00 0.00 37 1029.2
20221203224016 53 61 1.0 12.0 0.00 0.00 0.00 36 1029.2
20221203223513 53 11 2.0 12.0 0.00 0.00 0.00 36 1029.2
20221203223028 53 348 3.0 12.0 0.00 0.00 0.00 36 1029.0
20221203222514 54 352 2.0 10.0 0.00 0.00 0.00 37 1029.1
20221203222021 54 41 2.0 10.0 0.00 0.00 0.00 35 1029.1
20221203221519 54 40 2.0 9.0 0.00 0.00 0.00 35 1029.0
20221203221013 54 27 2.0 11.0 0.00 0.00 0.00 35 1029.0
20221203220521 54 17 3.0 11.0 0.00 0.00 0.00 35 1029.0
20221203220020 55 19 3.0 11.0 0.00 0.00 0.00 34 1029.0
20221203215518 54 26 4.0 11.0 0.00 0.00 0.00 35 1028.9
20221203215019 55 51 3.0 9.0 0.00 0.00 0.00 34 1029.0
20221203214516 55 13 2.0 8.0 0.00 0.00 0.00 34 1029.1
20221203214014 55 22 2.0 12.0 0.00 0.00 0.00 34 1029.1
20221203213516 55 57 6.0 12.0 0.00 0.00 0.00 35 1029.1
20221203213018 55 9 3.0 9.0 0.00 0.00 0.00 34 1029.1
20221203212518 55 11 3.0 9.0 0.00 0.00 0.00 35 1029.2
20221203212013 55 46 3.0 10.0 0.00 0.00 0.00 36 1029.2
20221203211517 55 43 3.0 11.0 0.00 0.00 0.00 34 1029.3
20221203211017 55 347 3.0 11.0 0.00 0.00 0.00 34 1029.3
20221203210513 55 352 3.0 12.0 0.00 0.00 0.00 35 1029.2
20221203210015 55 55 6.0 12.0 0.00 0.00 0.00 35 1029.3
20221203205517 55 9 5.0 12.0 0.00 0.00 0.00 35 1029.3
20221203205014 54 58 4.0 11.0 0.00 0.00 0.00 34 1029.3
20221203204525 55 27 3.0 11.0 0.00 0.00 0.00 36 1029.3
20221203204015 54 360 4.0 12.0 0.00 0.00 0.00 35 1029.3
20221203203515 54 64 5.0 12.0 0.00 0.00 0.00 35 1029.4
20221203203026 55 352 3.0 11.0 0.00 0.00 0.00 35 1029.4
20221203202517 55 55 4.0 16.0 0.00 0.00 0.00 36 1029.5
20221203202014 55 29 5.0 16.0 0.00 0.00 0.00 35 1029.5
20221203201520 55 38 3.0 11.0 0.00 0.00 0.00 35 1029.5
20221203201016 55 26 4.0 11.0 0.00 0.00 0.00 35 1029.6
20221203200514 55 360 2.0 10.0 0.00 0.00 0.00 36 1029.7
20221203200016 54 49 3.0 12.0 0.00 0.00 0.00 36 1029.8
20221203195513 54 34 3.0 12.0 0.00 0.00 0.00 36 1029.9
20221203195016 54 321 4.0 12.0 0.00 0.00 0.00 35 1030.1
20221203194514 54 360 3.0 11.0 0.00 0.00 0.00 37 1030.1
20221203194015 55 44 2.0 14.0 0.00 0.00 0.00 36 1030.1
20221203193515 54 70 3.0 14.0 0.00 0.00 0.00 37 1030.2
20221203193020 53 58 5.0 13.0 0.00 0.00 0.00 36 1030.3
20221203192516 53 60 3.0 13.0 0.00 0.00 0.00 38 1030.4
20221203192014 53 329 6.0 13.0 0.00 0.00 0.00 37 1030.6
20221203191518 52 23 5.0 12.0 0.00 0.00 0.00 37 1030.6
20221203191014 53 352 4.0 12.0 0.00 0.00 0.00 37 1030.6
20221203190515 52 35 6.0 16.0 0.00 0.00 0.00 37 1030.5
20221203190013 52 26 4.0 16.0 0.00 0.00 0.00 38 1030.6
20221203185513 52 5 7.0 16.0 0.00 0.00 0.00 37 1030.7
20221203185014 53 5 5.0 12.0 0.00 0.00 0.00 37 1030.7
20221203184516 52 336 3.0 17.0 0.00 0.00 0.00 37 1030.7
20221203184015 51 344 4.0 17.0 0.00 0.00 0.00 39 1030.7
20221203183514 51 84 6.0 17.0 0.00 0.00 0.00 39 1030.8
20221203183018 51 346 6.0 15.0 0.00 0.00 0.00 40 1031.0
20221203182514 51 360 6.0 15.0 0.00 0.00 0.00 39 1030.9
20221203182015 52 347 4.0 13.0 0.00 0.00 0.00 38 1031.1
20221203181518 50 46 3.0 16.0 0.00 0.00 0.00 39 1031.3
20221203181017 50 37 7.0 16.0 0.00 0.00 0.00 39 1031.4
20221203180513 50 331 4.0 14.0 0.00 0.00 0.00 40 1031.6
20221203180018 50 24 7.0 13.0 0.00 0.00 0.00 40 1031.7
20221203175513 50 329 5.0 13.0 0.00 0.00 0.00 41 1031.9
20221203175016 50 352 5.0 14.0 0.00 0.00 0.00 41 1032.0
20221203174514 50 99 2.0 14.0 0.00 0.00 0.00 42 1031.9
20221203174015 49 24 6.0 14.0 0.00 0.00 0.00 41 1031.9
20221203173515 50 23 4.0 16.0 0.00 0.00 0.00 40 1032.0
20221203173020 49 330 6.0 16.0 0.00 0.00 0.00 41 1032.2
20221203172515 49 30 6.0 16.0 0.00 0.00 0.00 42 1032.2
20221203172015 49 113 7.0 16.0 0.00 0.00 0.00 41 1032.2
20221203171515 49 32 6.0 16.0 0.00 0.00 0.00 41 1032.3
20221203171013 49 100 8.0 16.0 0.00 0.00 0.00 40 1032.2
20221203170515 49 58 5.0 15.0 0.00 0.00 0.00 43 1032.3
20221203170020 48 332 6.0 16.0 0.00 0.00 0.00 43 1032.1
20221203165514 48 27 6.0 16.0 0.00 0.00 0.00 44 1032.2
20221203165016 48 341 8.0 16.0 0.00 0.00 0.00 42 1032.2
20221203164518 48 31 7.0 16.0 0.00 0.00 0.00 43 1032.3
20221203164013 48 360 5.0 14.0 0.00 0.00 0.00 43 1032.2
20221203163514 47 352 7.0 14.0 0.00 0.00 0.00 44 1032.2
20221203163017 48 22 5.0 17.0 0.00 0.00 0.00 45 1032.3
20221203162516 47 329 4.0 17.0 0.00 0.00 0.00 46 1032.3
20221203162016 46 342 7.0 17.0 0.00 0.00 0.00 46 1032.3
20221203161513 46 5 5.0 15.0 0.00 0.00 0.00 47 1032.3
20221203161015 46 360 7.0 16.0 0.00 0.00 0.00 47 1032.3
20221203160516 46 54 5.0 16.0 0.00 0.00 0.00 47 1032.4
20221203160021 46 345 7.0 16.0 0.00 0.00 0.00 45 1032.4
20221203155517 45 26 7.0 15.0 0.00 0.00 0.00 47 1032.4
20221203155015 45 352 4.0 15.0 0.00 0.00 0.00 48 1032.3
20221203154516 45 352 5.0 15.0 0.00 0.00 0.00 50 1032.3
20221203154015 44 9 5.0 13.0 0.00 0.00 0.00 49 1032.3
20221203153519 44 326 5.0 14.0 0.00 0.00 0.00 51 1032.3
20221203153018 43 336 5.0 16.0 0.00 0.00 0.00 51 1032.3
20221203152519 43 308 7.0 16.0 0.00 0.00 0.00 51 1032.3
20221203152015 43 329 7.0 16.0 0.00 0.00 0.00 51 1032.2
20221203151513 44 348 5.0 17.0 0.00 0.00 0.00 51 1032.2
20221203151013 43 46 7.0 17.0 0.00 0.00 0.00 51 1032.2
20221203150513 43 321 5.0 17.0 0.00 0.00 0.00 52 1032.1
20221203150015 43 346 6.0 17.0 0.00 0.00 0.00 52 1032.0
20221203145516 42 360 7.0 17.0 0.00 0.00 0.00 52 1031.9
20221203145013 42 352 6.0 17.0 0.00 0.00 0.00 54 1032.0
20221203144517 42 9 6.0 16.0 0.00 0.00 0.00 55 1031.8
20221203144013 42 360 6.0 16.0 0.00 0.00 0.00 53 1031.8
20221203143514 42 324 6.0 17.0 0.00 0.00 0.00 54 1031.8
20221203143023 42 13 6.0 17.0 0.00 0.00 0.00 54 1031.6
20221203142513 42 31 7.0 17.0 0.00 0.00 0.00 54 1031.7
20221203142014 42 352 5.0 17.0 0.00 0.00 0.00 54 1031.6
20221203141514 42 338 7.0 16.0 0.00 0.00 0.00 54 1031.4
20221203141014 42 24 5.0 15.0 0.00 0.00 0.00 55 1031.4
20221203140515 42 342 6.0 15.0 0.00 0.00 0.00 55 1031.0
20221203140019 42 11 6.0 15.0 0.00 0.00 0.00 55 1030.9
20221203135519 42 335 5.0 15.0 0.00 0.00 0.00 56 1030.8
20221203135014 42 352 5.0 13.0 0.00 0.00 0.00 55 1030.8
20221203134518 42 328 5.0 12.0 0.00 0.00 0.00 56 1030.8
20221203134015 42 22 4.0 14.0 0.00 0.00 0.00 55 1030.7
20221203133515 42 341 5.0 14.0 0.00 0.00 0.00 56 1030.6
20221203133015 42 345 4.0 13.0 0.00 0.00 0.00 56 1030.6
20221203132514 42 18 4.0 13.0 0.00 0.00 0.00 55 1030.5
20221203132014 42 360 6.0 13.0 0.00 0.00 0.00 55 1030.2
20221203131515 42 344 6.0 15.0 0.00 0.00 0.00 55 1030.2
20221203131017 43 45 5.0 15.0 0.00 0.00 0.00 56 1030.1
20221203130514 43 352 6.0 12.0 0.00 0.00 0.00 55 1030.1
20221203130017 43 339 5.0 13.0 0.00 0.00 0.00 56 1029.9
20221203125514 43 332 5.0 13.0 0.00 0.00 0.00 55 1029.9
20221203125014 43 26 5.0 13.0 0.00 0.00 0.00 55 1029.7
20221203124519 43 159 3.0 13.0 0.00 0.00 0.00 55 1029.6
20221203124014 43 352 5.0 13.0 0.00 0.00 0.00 55 1029.5
20221203123514 44 46 4.0 12.0 0.00 0.00 0.00 55 1029.3
20221203123014 44 341 4.0 12.0 0.00 0.00 0.00 56 1029.2
20221203122519 44 39 3.0 10.0 0.00 0.00 0.00 55 1029.2
20221203122013 44 343 4.0 10.0 0.00 0.00 0.00 54 1029.1
20221203121518 44 350 3.0 10.0 0.00 0.00 0.00 54 1029.1
20221203121015 45 19 3.0 14.0 0.00 0.00 0.00 54 1029.0
20221203120515 45 49 4.0 14.0 0.00 0.00 0.00 53 1028.9
20221203120020 45 350 4.0 11.0 0.00 0.00 0.00 53 1028.8
20221203115514 45 344 4.0 10.0 0.00 0.00 0.00 53 1028.8
20221203115015 46 28 4.0 10.0 0.00 0.00 0.00 52 1028.7
20221203114514 46 10 4.0 12.0 0.00 0.00 0.00 52 1028.5
20221203114018 46 342 6.0 15.0 0.00 0.00 0.00 51 1028.4
20221203113516 46 12 5.0 15.0 0.00 0.00 0.00 51 1028.4
20221203113014 46 5 4.0 14.0 0.00 0.00 0.00 51 1028.2
20221203112514 46 26 5.0 14.0 0.00 0.00 0.00 51 1028.0
20221203112015 47 51 4.0 12.0 0.00 0.00 0.00 51 1027.8
20221203111522 47 65 5.0 12.0 0.00 0.00 0.00 51 1027.8
20221203111016 47 355 3.0 13.0 0.00 0.00 0.00 51 1027.6
20221203110516 47 33 5.0 13.0 0.00 0.00 0.00 51 1027.6
20221203110018 47 39 5.0 15.0 0.00 0.00 0.00 50 1027.4
20221203105515 48 350 4.0 15.0 0.00 0.00 0.00 51 1027.3
20221203105014 48 325 5.0 14.0 0.00 0.00 0.00 50 1027.1
20221203104513 48 25 4.0 14.0 0.00 0.00 0.00 50 1027.1
20221203104019 49 13 5.0 13.0 0.00 0.00 0.00 50 1026.9
20221203103514 49 42 4.0 16.0 0.00 0.00 0.00 49 1027.0
20221203103016 49 12 6.0 16.0 0.00 0.00 0.00 47 1026.9
20221203102514 50 5 6.0 17.0 0.00 0.00 0.00 46 1026.7
20221203102014 50 14 5.0 20.0 0.00 0.00 0.00 46 1026.8
20221203101516 50 45 6.0 20.0 0.00 0.00 0.00 45 1026.7
20221203101015 50 352 6.0 20.0 0.00 0.00 0.00 45 1026.7
20221203100514 50 30 5.0 17.0 0.00 0.00 0.00 46 1026.7
20221203100014 50 19 6.0 22.0 0.00 0.00 0.00 47 1026.6
20221203095517 51 321 7.0 22.0 0.00 0.00 0.00 48 1026.4
20221203095013 51 77 5.0 16.0 0.00 0.00 0.00 51 1026.3
20221203094514 51 314 5.0 13.0 0.00 0.00 0.00 51 1026.3
20221203094014 51 350 4.0 19.0 0.00 0.00 0.00 53 1026.3
20221203093515 51 36 5.0 19.0 0.00 0.00 0.00 52 1026.2
20221203093015 51 340 4.0 16.0 0.00 0.00 0.00 54 1026.2
20221203092514 52 341 5.0 16.0 0.00 0.00 0.00 53 1026.0
20221203092015 52 44 7.0 18.0 0.00 0.00 0.00 52 1025.8
20221203091518 52 36 4.0 24.0 0.00 0.00 0.00 53 1025.8
20221203091015 53 352 6.0 24.0 0.00 0.00 0.00 52 1025.8
20221203090514 53 352 8.0 16.0 0.00 0.00 0.00 54 1025.7
20221203090016 53 360 8.0 16.0 0.00 0.00 0.00 57 1025.6
20221203085514 53 347 5.0 16.0 0.00 0.00 0.00 60 1025.5
20221203085013 54 33 6.0 15.0 0.00 0.00 0.00 62 1025.3
20221203084514 55 11 6.0 18.0 0.00 0.00 0.00 63 1025.2
20221203084014 55 27 8.0 24.0 0.00 0.00 0.00 62 1024.7
20221203083513 57 13 9.0 24.0 0.00 0.00 0.00 63 1024.6
20221203083013 58 342 12.0 24.0 0.00 0.00 0.00 65 1024.3
20221203082514 59 5 9.0 19.0 0.00 0.00 0.00 74 1024.1
20221203082014 60 352 7.0 18.0 0.00 0.00 0.00 79 1024.0
20221203081526 61 331 8.0 18.0 0.00 0.00 0.00 81 1023.7
20221203081015 61 333 7.0 18.0 0.00 0.00 0.00 83 1023.7
20221203080517 61 315 8.0 14.0 0.00 0.00 0.00 85 1023.6
20221203080021 61 351 5.0 17.0 0.00 0.00 0.00 86 1023.5
20221203075516 61 332 6.0 17.0 0.00 0.00 0.00 89 1023.4
20221203075017 60 309 11.0 17.0 0.00 0.00 0.00 92 1023.1
20221203074519 60 352 2.0 7.0 0.00 0.00 0.00 91 1022.2
20221203074018 60 252 2.0 7.0 0.00 0.00 0.00 91 1021.7
20221203073518 60 319 1.0 4.0 0.00 0.00 0.00 92 1021.8
20221203073021 59 319 1.0 4.0 0.00 0.00 0.00 91 1021.8
20221203072518 60 333 1.0 4.0 0.00 0.00 0.00 91 1021.7
20221203072017 60 248 0.0 6.0 0.00 0.00 0.00 91 1021.7
20221203071531 60 0 0.0 6.0 0.00 0.00 0.00 90 1021.8
20221203071014 60 277 2.0 7.0 0.00 0.00 0.00 90 1021.6
20221203070514 60 235 3.0 7.0 0.00 0.00 0.00 91 1021.4
20221203070016 60 247 4.0 7.0 0.00 0.00 0.00 92 1021.4
20221203065516 60 250 3.0 7.0 0.00 0.00 0.00 92 1021.6
20221203065016 59 238 1.0 4.0 0.00 0.00 0.00 92 1021.8
20221203064520 59 0 0.0 3.0 0.00 0.00 0.00 91 1022.0
20221203064017 60 0 0.0 5.0 0.00 0.00 0.00 89 1022.0
20221203063518 60 238 1.0 6.0 0.00 0.00 0.00 90 1021.8
20221203063021 61 242 2.0 8.0 0.00 0.00 0.00 90 1021.6
20221203062518 61 260 3.0 8.0 0.00 0.00 0.00 90 1021.4
20221203062017 61 216 3.0 7.0 0.00 0.00 0.00 90 1021.3
20221203061517 60 220 2.0 7.0 0.00 0.00 0.00 91 1021.3
20221203061016 60 219 2.0 8.0 0.00 0.00 0.00 91 1021.2
20221203060517 60 238 4.0 8.0 0.00 0.00 0.00 91 1021.2
20221203060025 60 200 2.0 6.0 0.00 0.00 0.00 91 1021.2
20221203055517 60 246 2.0 6.0 0.00 0.00 0.00 91 1021.2
20221203055016 60 229 3.0 6.0 0.00 0.00 0.00 92 1021.1
20221203054516 60 251 2.0 6.0 0.00 0.00 0.00 92 1021.1
20221203054016 59 209 1.0 5.0 0.00 0.00 0.00 93 1021.1
20221203053516 59 212 2.0 5.0 0.00 0.00 0.00 93 1021.2
20221203053016 59 0 0.0 2.0 0.00 0.00 0.00 93 1021.1
20221203052515 59 0 0.0 3.0 0.00 0.00 0.00 93 1021.2
20221203052017 59 199 1.0 3.0 0.00 0.00 0.00 93 1021.2
20221203051518 59 192 0.0 2.0 0.00 0.00 0.00 93 1021.1
20221203051017 59 165 0.0 2.0 0.00 0.00 0.00 93 1021.1
20221203050518 59 165 0.0 2.0 0.00 0.00 0.00 93 1021.0
20221203050029 59 165 0.0 2.0 0.00 0.00 0.00 93 1021.0
20221203045517 59 165 0.0 2.0 0.00 0.00 0.00 93 1021.0
20221203045016 59 165 1.0 2.0 0.00 0.00 0.00 93 1021.0
20221203044517 59 165 1.0 2.0 0.00 0.00 0.00 93 1021.0
20221203044016 58 0 0.0 2.0 0.00 0.00 0.00 93 1020.9
20221203043516 58 0 0.0 2.0 0.00 0.00 0.00 93 1020.8
20221203043025 59 177 0.0 2.0 0.00 0.00 0.00 93 1020.9
20221203042519 59 177 0.0 2.0 0.00 0.00 0.00 92 1020.8
20221203042015 59 177 0.0 2.0 0.00 0.00 0.00 92 1020.8
20221203041521 59 177 1.0 3.0 0.00 0.00 0.00 92 1020.7
20221203041017 59 0 1.0 3.0 0.00 0.00 0.00 92 1020.7
20221203040520 60 177 1.0 3.0 0.00 0.00 0.00 92 1020.7
20221203040018 60 177 1.0 2.0 0.00 0.00 0.00 91 1020.7
20221203035517 60 177 1.0 3.0 0.00 0.00 0.00 92 1020.5
20221203035017 60 177 1.0 4.0 0.00 0.00 0.00 91 1020.5
20221203034518 60 165 1.0 4.0 0.00 0.00 0.00 91 1020.4
20221203034016 60 167 1.0 4.0 0.00 0.00 0.00 91 1020.2
20221203033516 60 0 1.0 4.0 0.00 0.00 0.00 91 1020.3
20221203033016 60 161 1.0 4.0 0.00 0.00 0.00 91 1020.1
20221203032516 60 168 1.0 2.0 0.00 0.00 0.00 90 1020.1
20221203032017 60 168 0.0 1.0 0.00 0.00 0.00 91 1020.1
20221203031519 60 168 0.0 2.0 0.00 0.00 0.00 91 1019.9
20221203031013 60 0 0.0 3.0 0.00 0.00 0.00 89 1019.8
20221203030516 60 166 0.0 4.0 0.00 0.00 0.00 89 1019.6
20221203030018 61 166 1.0 4.0 0.00 0.00 0.00 89 1019.6
20221203025518 61 165 1.0 4.0 0.00 0.00 0.00 89 1019.5
20221203025021 61 165 1.0 4.0 0.00 0.00 0.00 88 1019.3
20221203024517 61 169 1.0 4.0 0.00 0.00 0.00 88 1019.2
20221203024017 61 182 0.0 2.0 0.00 0.00 0.00 88 1019.2
20221203023516 61 182 1.0 3.0 0.00 0.00 0.00 87 1019.0
20221203023017 61 182 1.0 3.0 0.00 0.00 0.00 86 1018.9
20221203022518 62 182 1.0 3.0 0.00 0.00 0.00 86 1018.9
20221203022019 62 182 1.0 3.0 0.00 0.00 0.00 86 1018.8
20221203021522 62 188 1.0 3.0 0.00 0.00 0.00 85 1018.7
20221203021013 62 177 1.0 2.0 0.00 0.00 0.00 85 1018.5
20221203020514 62 177 1.0 3.0 0.00 0.00 0.00 84 1018.4
20221203020019 62 182 1.0 3.0 0.00 0.00 0.00 84 1018.3
20221203015516 62 215 1.0 3.0 0.00 0.00 0.00 84 1018.2
20221203015017 62 0 0.0 2.0 0.00 0.00 0.00 84 1018.1
20221203014537 63 215 0.0 2.0 0.00 0.00 0.00 83 1018.1
20221203014015 63 215 1.0 2.0 0.00 0.00 0.00 83 1017.9
20221203013518 63 0 0.0 2.0 0.00 0.00 0.00 83 1017.9
20221203013020 63 0 1.0 2.0 0.00 0.00 0.00 82 1017.7
20221203012514 63 215 1.0 2.0 0.00 0.00 0.00 82 1017.6
20221203012015 64 215 0.0 2.0 0.00 0.00 0.00 81 1017.6
20221203011519 63 215 0.0 2.0 0.00 0.00 0.00 82 1017.5
20221203011018 62 215 0.0 2.0 0.00 0.00 0.00 84 1017.4
20221203010517 63 0 0.0 1.0 0.00 0.00 0.00 81 1017.3
20221203010019 64 215 0.0 1.0 0.00 0.00 0.00 79 1017.1
20221203005515 64 0 0.0 2.0 0.00 0.00 0.00 79 1017.1
20221203005016 65 0 0.0 2.0 0.00 0.00 0.00 78 1017.0
20221203004522 65 215 1.0 3.0 0.00 0.00 0.00 78 1016.9
20221203004016 65 215 1.0 4.0 0.00 0.00 0.00 77 1016.9
20221203003515 65 221 1.0 4.0 0.00 0.00 0.00 77 1016.8
20221203003018 66 221 1.0 3.0 0.00 0.00 0.00 77 1016.5
20221203002514 66 217 1.0 3.0 0.00 0.00 0.00 76 1016.5
20221203002019 66 213 0.0 5.0 0.00 0.00 0.00 75 1016.5
20221203001519 67 0 1.0 5.0 0.00 0.00 0.00 74 1016.3
20221203001015 67 212 1.0 6.0 0.00 0.00 0.00 73 1016.3
20221203000516 68 195 2.0 6.0 0.00 0.00 0.00 73 1016.1
20221203000017 68 218 2.0 6.0 0.00 0.00 0.00 72 1016.1
20221202235516 68 213 1.0 4.0 0.00 0.00 0.00 71 1015.9
20221202235015 68 207 0.0 5.0 0.00 0.00 0.00 70 1015.8
20221202234515 69 221 1.0 6.0 0.00 0.00 0.00 68 1015.8
20221202234016 69 222 2.0 6.0 0.00 0.00 0.00 67 1015.6
20221202233516 70 213 2.0 6.0 0.00 0.00 0.00 67 1015.6
20221202233027 70 196 3.0 6.0 0.00 0.00 0.00 66 1015.5
20221202232516 71 192 3.0 8.0 0.00 0.00 0.00 65 1015.6
20221202232014 71 212 2.0 8.0 0.00 0.00 0.00 64 1015.4
20221202231519 72 199 3.0 8.0 0.00 0.00 0.00 63 1015.4
20221202231015 72 228 4.0 9.0 0.00 0.00 0.00 63 1015.3
20221202230518 72 186 4.0 10.0 0.00 0.00 0.00 62 1015.2
20221202230020 73 222 3.0 12.0 0.00 0.00 0.00 62 1015.1
20221202225515 73 200 6.0 12.0 0.00 0.00 0.00 61 1015.1
20221202225015 73 266 6.0 11.0 0.00 0.00 0.00 61 1015.1